Zurück zum Katalog

COSMOS 1275 DEB

AktivPO
NORAD 42148·DEBRIS·🇷🇺 Russia

Gestartet Jun 4, 1981 von Plesetsk Cosmodrome

Loading…

Nächste Überflüge (nächste 24 Stunden)

TLE

AktuellSource: Space-Track

Epoche: Sep 13, 2026, 15:00 UTC

1 42148U 81053RL  26256.62556834  .00000758  00000-0  63262-3 0  9998
2 42148  83.0948 130.8415 0076917 284.2464  75.0165 13.85936818645961

Verfolge COSMOS 1275 DEB in Echtzeit mit AllMySat

Download on the App Store